Location: Unspecified
(42.9300°N, 71.1866°W)
Time: 02:25:51
(UTC-04:00)

Cosmos 1674 - Visible Passes

Search period start: 23 March 2017 00:00
Search period end: 02 April 2017 00:00
Orbit: 498 x 524 km, 82.5° (Epoch: 21 March)

Date Brightness Start Highest point End Pass type
(mag) Time Alt. Az. Time Alt. Az. Time Alt. Az.
23 Mar 3.3 21:15:14 10° NNW 21:18:33 54° WNW 21:18:33 54° WNW visible
24 Mar 2.7 20:58:45 10° NNW 21:02:32 75° W 21:02:56 66° SSW visible
25 Mar 2.5 20:42:20 10° N 20:46:07 84° E 20:47:23 40° SSE visible
26 Mar 2.6 20:25:55 10° N 20:29:41 65° E 20:31:54 23° SSE visible
27 Mar 2.8 20:09:32 10° N 20:13:15 50° E 20:16:32 13° SSE visible
27 Mar 5.9 21:47:26 10° WNW 21:48:22 11° W 21:49:20 10° W visible
28 Mar 3.2 19:53:13 10° N 19:56:48 39° ENE 20:00:22 10° SSE visible
28 Mar 5.7 21:30:05 10° NW 21:32:02 14° W 21:33:59 10° WSW visible
29 Mar 3.5 19:36:55 10° NNE 19:40:20 31° ENE 19:43:44 10° SE visible
29 Mar 5.5 21:13:10 10° NW 21:15:41 17° W 21:18:13 10° SW visible
30 Mar 5.2 20:56:24 10° NW 20:59:20 21° W 21:02:16 10° SW visible
31 Mar 4.9 20:39:44 10° NNW 20:42:58 27° W 20:46:12 10° SSW visible
01 Apr 4.5 20:23:07 10° NNW 20:26:35 34° W 20:30:02 10° SSW visible
